Location: Cheraw
(34.6968°N, 79.8912°W)
Time: 23:13:30
(UTC+00:00)

N. Korean satellite - Pass Details

Date: 22 August 2022
Orbit: 428 x 468 km, 97.3° (Epoch: 24 September)

Event Time Altitude Azimuth Distance (km) Brightness Sun altitude
Rises 09:47:46 0° 28° (NNE) 2,521 11.1 -12.0°
Reaches altitude 10° 09:50:12 10° 44° (NE) 1,634 10.4 -11.5°
Maximum altitude 09:52:56 21° 96° (E) 1,096 9.2 -11.0°
Drops below altitude 10° 09:55:37 10° 147° (SSE) 1,607 9.3 -10.5°
Sets 09:57:59 0° 164° (SSE) 2,468 10.1 -10.1°
